Regional Weather Roundup
Issued by NWS

Home | Current Version | Previous Version | Graphics & Text | Print | Product List | Glossary On
Versions: 1 2 3 4 5 6 7 8 9 10 11 12 13 14 15 16 17 18 19 20 21 22 23 24 25 26 27 28 29 30 31 32 33 34 35 36 37 38 39 40 41 42 43 44 45 46 47 48 49 50
000
ASUS45 KABQ 190201
RWRNM
WEATHER ROUNDUP FOR NEW MEXICO
NATIONAL WEATHER SERVICE ALBUQUERQUE NM
800 PM MDT FRI APR 18 2014

NOTE: "FAIR" MEANS FEW OR NO CLOUDS BELOW 12,000 FEET AGL WITH NO
       SIGNIFICANT WEATHER OR OBSTRUCTIONS TO VISION.

      THIS PRODUCT IS RELEASED AS TWO VERSIONS.  ONE VERSION NEAR
      THE TOP OF THE HOUR CONTAINING PRELIMINARY DATA FROM ALBUQUERQUE
      AND OTHER STATIONS.  A FINAL VERSION WITH ADDITIONAL DATA IS
      ISSUED ABOUT 10 MINUTES AFTER THE HOUR.

NMZ501-503-504-510>518-190300-
NORTHWEST PLATEAU/NORTHCENTRAL MOUNTAINS

CITY           SKY/WX    TMP DP  RH WIND       PRES   REMARKS
FARMINGTON     CLOUDY    66  27  23 S14G22    30.00R
LOS ALAMOS     MOCLDY    63  20  19 S12G20    30.11R
SANTA FE       CLOUDY    67  23  19 SW32G41   30.04S
TAOS           PTCLDY    59  16  18 SW10      30.10S
ANGEL FIRE     FAIR      53  23  31 SW8       30.17R

$$
NMZ402-403-502-505>509-190300-
WESTCENTRAL MOUNTAINS/SOUTHWEST MOUNTAINS

CITY           SKY/WX    TMP DP  RH WIND       PRES   REMARKS
GALLUP         CLOUDY    56  33  42 SW23G32   30.13R
SILVER CITY    CLOUDY    61  28  29 N10       30.07F

$$
NMZ407-409-411-412-190300-
SOUTHERN DESERTS

CITY           SKY/WX    TMP DP  RH WIND       PRES   REMARKS
DEMING         CLOUDY    69  30  23 NW9       29.99S
HOLLOMAN AFB   CLOUDY    75  36  23 S15       29.98R
T OR C         CLOUDY    69  28  21 W16       30.03R

$$
NMZ519>523-190300-
CENTRAL VALLEYS/CENTRAL HIGHLANDS

CITY           SKY/WX    TMP DP  RH WIND       PRES   REMARKS
ALBUQUERQUE    CLOUDY    71  21  15 S21       30.01R
CLINES CORNERS CLOUDY    57  37  47 S16       30.12R
BELEN          FAIR      70  29  21 SW14      30.02R
SOCORRO        NOT AVBL

$$
NMZ524>526-539-540-190300-
SOUTHCENTRAL MOUNTAINS

CITY           SKY/WX    TMP DP  RH WIND       PRES   REMARKS
RUIDOSO        NOT AVBL

$$
NMZ527>531-190300-
NORTHEAST HIGHLANDS/NORTHEAST PLAINS

CITY           SKY/WX    TMP DP  RH WIND       PRES   REMARKS
LAS VEGAS      CLOUDY    56  33  42 S23       30.10R
RATON          CLOUDY    61  35  37 S23G35    30.02R
CLAYTON        CLOUDY    65  34  31 S22       30.01R

$$
NMZ532>537-190300-
EASTCENTRAL PLAINS

CITY           SKY/WX    TMP DP  RH WIND       PRES   REMARKS
TUCUMCARI      CLOUDY    68  43  40 S21G31    30.00R
CANNON AFB     NOT AVBL
CLOVIS AIRPORT CLOUDY    61  43  51 S12       30.12R

$$
NMZ028-029-538-190300-
SOUTHEAST PLAINS

CITY           SKY/WX    TMP DP  RH WIND       PRES   REMARKS
ROSWELL        MOCLDY    70  42  36 SE10      30.02S
CARLSBAD       MOCLDY    72  43  35 SE8       30.01S
HOBBS          CLEAR     66  41  39 SE10      30.09R


$$



USA.gov is the U.S. government's official web portal to all federal, state and local government web resources and services.